New River MCAS, NC

3:21 PM EDT on May 23, 2017 (GMT -0400)
New River Marine Corps Air Station

Weather History for KNCA - February, 2012

Change the Weather History Date:

Wednesday, February 8, 2012

  Actual Average Record
Temperature  
Mean Temperature 44 °F -  
Max Temperature 57 °F 55 °F 71 °F (2017)
Min Temperature 32 °F 35 °F 25 °F (2006)
Degree Days  
Heating Degree Days 20    
Moisture  
Dew Point 37 °F    
Average Humidity 85    
Maximum Humidity 100    
Minimum Humidity 53    
Precipitation  
Precipitation 0.01 in - - ()
Sea Level Pressure  
Sea Level Pressure 30.14 in    
Wind  
Wind Speed 2 mph (NNW)    
Max Wind Speed 13 mph    
Max Gust Speed -    
Visibility 8 miles    
Events Fog , Rain    
Averages and records for this station are not official NWS values.
T = Trace of Precipitation, MM = Missing Value Source: NWS Daily Summary

Daily Weather History Graph

Daily Weather History Graph

Search for Another Location

Airport or City:

Trip Planner

Search our weather history database for the weather conditions in past years. The results will help you decide how hot, cold, wet, or windy it might be!

Date:

Astronomy

Feb. 08, 2012 Rise Set
Actual Time 7:02 AM EST 5:45 PM EST
Civil Twilight 6:36 AM EST 6:11 PM EST
Nautical Twilight 6:06 AM EST 6:41 PM EST
Astronomical Twilight 5:37 AM EST 7:11 PM EST
Moon 6:57 PM EST (2/8) 7:09 AM EST (2/8)
Length of Visible Light 11h 35m
Length of Day
10h 42m
Full, 99% of the Moon is Illuminated
Feb 8
Full
Feb 14
Last Quarter
Feb 21
New
Feb 29
First Quarter
Mar 8
Full

Hourly Weather History & Observations

Time (EST) Temp. Windchill Dew Point Humidity Pressure Visibility Wind Dir Wind Speed Gust Speed Precip Events Conditions
12:56 AM 39.9 °F - 37.9 °F 93% 30.18 in 10.0 mi Calm Calm - N/A   Clear
1:56 AM 37.0 °F - 35.1 °F 93% 30.19 in 7.0 mi Calm Calm - N/A   Clear
2:56 AM 35.1 °F - 34.0 °F 96% 30.17 in 6.0 mi Calm Calm - N/A   Clear
3:10 AM 35.6 °F - 35.6 °F 100% 30.16 in 1.8 mi Calm Calm - N/A   Clear
3:20 AM 33.8 °F 30.8 °F 33.8 °F 100% 30.17 in 3.0 mi NW 3.5 mph - N/A   Clear
3:56 AM 35.1 °F - 34.0 °F 96% 30.17 in 5.0 mi Calm Calm - N/A   Clear
4:05 AM 33.8 °F - 32.0 °F 93% 30.15 in 1.5 mi Calm Calm - N/A   Clear
4:07 AM 32.0 °F - 32.0 °F 100% 30.15 in 0.8 mi Calm Calm - N/A   Mist
4:14 AM 33.8 °F - 32.0 °F 93% 30.15 in 0.5 mi Calm Calm - N/A Fog Fog
4:17 AM 33.8 °F - 32.0 °F 93% 30.15 in 1.0 mi Calm Calm - N/A   Clear
4:19 AM 33.8 °F - 32.0 °F 93% 30.15 in 2.0 mi Calm Calm - N/A   Clear
4:26 AM 33.8 °F 28.6 °F 32.0 °F 93% 30.15 in 8.0 mi NNW 5.8 mph - N/A   Clear
4:56 AM 34.0 °F - 34.0 °F 100% 30.15 in 9.0 mi Calm Calm - N/A   Clear
5:56 AM 35.1 °F - 34.0 °F 96% 30.15 in 9.0 mi Calm Calm - N/A   Clear
6:56 AM 32.0 °F 28.7 °F 30.9 °F 96% 30.16 in 10.0 mi NW 3.5 mph - N/A   Clear
7:56 AM 39.0 °F 35.7 °F 36.0 °F 89% 30.16 in 10.0 mi NNE 4.6 mph - N/A   Scattered Clouds
8:56 AM 45.0 °F 41.8 °F 39.0 °F 80% 30.16 in 10.0 mi NE 5.8 mph - N/A   Scattered Clouds
9:56 AM 50.0 °F - 41.0 °F 71% 30.16 in 10.0 mi Calm Calm - N/A   Scattered Clouds
10:56 AM 53.1 °F - 42.1 °F 66% 30.13 in 10.0 mi NNE 4.6 mph - N/A   Scattered Clouds
11:56 AM 57.0 °F - 43.0 °F 59% 30.12 in 10.0 mi NNW 3.5 mph - N/A   Scattered Clouds
12:56 PM 57.9 °F - 41.0 °F 53% 30.09 in 10.0 mi NNW 6.9 mph - N/A   Mostly Cloudy
1:56 PM 57.9 °F - 42.1 °F 56% 30.07 in 10.0 mi NW 9.2 mph - N/A   Mostly Cloudy
2:56 PM 55.9 °F - 39.9 °F 55% 30.05 in 10.0 mi NNW 9.2 mph - 0.00 in   Mostly Cloudy
3:56 PM 50.0 °F - 43.0 °F 77% 30.09 in 9.0 mi NW 12.7 mph - 0.00 in Rain Light Rain
4:56 PM 50.0 °F - 43.0 °F 77% 30.08 in 10.0 mi NNW 10.4 mph - 0.01 in   Mostly Cloudy
5:56 PM 48.0 °F - 39.9 °F 74% 30.09 in 10.0 mi North 6.9 mph - N/A   Scattered Clouds
6:56 PM 44.1 °F 40.8 °F 39.0 °F 82% 30.11 in 10.0 mi NW 5.8 mph - N/A   Clear
7:56 PM 44.1 °F 40.8 °F 39.0 °F 82% 30.12 in 10.0 mi NNW 5.8 mph - N/A   Clear
8:56 PM 42.1 °F 39.2 °F 37.9 °F 85% 30.15 in 10.0 mi West 4.6 mph - N/A   Mostly Cloudy
9:56 PM 42.1 °F 37.7 °F 37.0 °F 82% 30.16 in 10.0 mi NNW 6.9 mph - N/A   Clear
10:56 PM 39.0 °F 34.8 °F 36.0 °F 89% 30.17 in 10.0 mi NNW 5.8 mph - N/A   Clear
11:56 PM 36.0 °F 33.3 °F 34.0 °F 93% 30.18 in 8.0 mi WNW 3.5 mph - N/A   Clear